EW7507 Weather Reports


Display with metric or nautical units.
time (UTC)temp
F
wind
direction
speed
MPH
gust
MPH
rain 1hr
in
rain 24hr
in
rain mn
in
humidity
%
barometer
mb
20260905061050 57 261 0.0 0.0 0.00 0.00 0.00 60 975.9
20260905060548 57 261 0.0 0.0 0.00 0.00 0.00 61 975.9
20260905060055 58 261 0.0 0.0 0.00 0.00 0.00 58 976.3
20260905060048 58 261 0.0 0.0 0.00 0.00 0.00 59 976.2
20260905055050 58 261 0.0 0.0 0.00 0.00 0.00 57 976.3
20260905054547 58 262 0.0 0.0 0.00 0.00 0.00 58 976.3
20260905054049 58 262 0.0 1.0 0.00 0.00 0.00 58 976.4
20260905053546 58 262 0.0 2.0 0.00 0.00 0.00 56 976.3
20260905053048 58 262 0.0 2.0 0.00 0.00 0.00 56 976.3
20260905052547 58 261 0.0 1.0 0.00 0.00 0.00 56 976.4
20260905052049 59 262 0.0 1.0 0.00 0.00 0.00 56 976.5
20260905051553 59 262 0.0 2.0 0.00 0.00 0.00 56 976.4
20260905051546 59 262 0.0 0.0 0.00 0.00 0.00 56 976.6
20260905050547 59 262 0.0 2.0 0.00 0.00 0.00 56 976.5
20260905050049 59 259 0.0 4.0 0.00 0.00 0.00 57 976.4
20260905045546 59 257 0.0 4.0 0.00 0.00 0.00 56 976.1
20260905045046 59 255 0.0 3.0 0.00 0.00 0.00 56 975.7
20260905044545 59 207 0.0 0.0 0.00 0.00 0.00 56 975.6
20260905044056 59 203 0.0 1.0 0.00 0.00 0.00 55 975.4
20260905044047 59 203 0.0 1.0 0.00 0.00 0.00 55 975.7
20260905043709 59 203 0.0 1.0 0.00 0.00 0.00 53 975.2
20260905042547 60 203 0.0 3.0 0.00 0.00 0.00 52 975.0
20260905042212 60 203 0.0 2.0 0.00 0.00 0.00 51 975.0
20260905041047 60 202 0.0 4.0 0.00 0.00 0.00 51 975.1
20260905040545 60 202 0.0 4.0 0.00 0.00 0.00 51 975.1
20260905040046 60 203 0.0 2.0 0.00 0.00 0.00 51 975.0
20260905035551 60 234 0.0 2.0 0.00 0.00 0.00 51 975.0
20260905035544 60 234 0.0 2.0 0.00 0.00 0.00 52 974.8
20260905034544 61 234 0.0 0.0 0.00 0.00 0.00 53 975.2
20260905034047 61 234 0.0 0.0 0.00 0.00 0.00 55 975.1
20260905033545 61 234 0.0 0.0 0.00 0.00 0.00 51 975.1
20260905033055 61 234 0.0 1.0 0.00 0.00 0.00 51 975.5
20260905033048 61 234 0.0 0.0 0.00 0.00 0.00 51 975.2
20260905032045 61 234 0.0 1.0 0.00 0.00 0.00 50 975.5
20260905031544 61 248 0.0 1.0 0.00 0.00 0.00 52 975.6
20260905031044 61 248 0.0 3.0 0.00 0.00 0.00 53 975.4
20260905030545 61 250 0.0 3.0 0.00 0.00 0.00 54 975.2
20260905030044 61 261 0.0 1.0 0.00 0.00 0.00 56 975.1
20260905025545 61 265 0.0 1.0 0.00 0.00 0.00 57 975.0
20260905025045 62 266 0.0 1.0 0.00 0.00 0.00 56 974.9
20260905024542 62 266 0.0 0.0 0.00 0.00 0.00 56 974.8
20260905024044 62 266 0.0 1.0 0.00 0.00 0.00 55 974.8
20260905023551 62 268 0.0 0.0 0.00 0.00 0.00 55 974.4
20260905023543 62 266 0.0 1.0 0.00 0.00 0.00 54 974.5
20260905022542 62 268 0.0 0.0 0.00 0.00 0.00 55 974.4
20260905022045 63 268 0.0 3.0 0.00 0.00 0.00 54 974.4
20260905021542 63 268 0.0 3.0 0.00 0.00 0.00 54 974.3
20260905021059 64 319 0.0 2.0 0.00 0.00 0.00 54 974.2
20260905021049 63 319 0.0 2.0 0.00 0.00 0.00 55 974.3
20260905020044 64 319 0.0 2.0 0.00 0.00 0.00 53 974.1
20260905015542 64 319 0.0 3.0 0.00 0.00 0.00 52 974.0
20260905015042 65 319 0.0 3.0 0.00 0.00 0.00 51 973.8
20260905014542 65 319 0.0 6.0 0.00 0.00 0.00 51 973.9
20260905014043 65 319 0.0 6.0 0.00 0.00 0.00 51 973.8
20260905013542 66 333 0.0 3.0 0.00 0.00 0.00 48 973.4
20260905013043 66 358 0.0 3.0 0.00 0.00 0.00 48 973.4
20260905012542 67 358 0.0 3.0 0.00 0.00 0.00 47 973.2
20260905012042 67 358 0.0 2.0 0.00 0.00 0.00 47 973.4
20260905011541 67 358 0.0 2.0 0.00 0.00 0.00 45 973.7
20260905011042 68 0 0.0 0.0 0.00 0.00 0.00 46 973.8
20260905010540 68 0 0.0 4.0 0.00 0.00 0.00 44 973.7
20260905010043 68 0 0.0 4.0 0.00 0.00 0.00 44 973.5
20260905005540 69 355 0.0 2.0 0.00 0.00 0.00 44 973.4
20260905005042 69 358 0.0 0.0 0.00 0.00 0.00 44 973.5
20260905004540 69 358 0.0 3.0 0.00 0.00 0.00 43 973.4
20260905004042 69 358 2.0 3.0 0.00 0.00 0.00 43 973.3
20260905003539 69 357 0.0 6.0 0.00 0.00 0.00 42 973.3
20260905003041 70 357 0.0 6.0 0.00 0.00 0.00 41 973.3
20260905002546 70 0 2.0 5.0 0.00 0.00 0.00 40 973.3
20260905002540 70 0 4.0 6.0 0.00 0.00 0.00 41 973.3
20260905001548 71 338 4.0 7.0 0.00 0.00 0.00 39 973.3
20260905001540 70 343 1.0 7.0 0.00 0.00 0.00 40 973.3
20260905000540 71 282 4.0 7.0 0.00 0.00 0.00 39 973.3
20260905000040 71 276 2.0 6.0 0.00 0.00 0.00 39 973.2
20260904235538 71 300 0.0 9.0 0.00 0.00 0.00 37 973.2
20260904235040 72 302 4.0 9.0 0.00 0.00 0.00 38 973.0
20260904234546 72 293 5.0 9.0 0.00 0.00 0.00 36 972.9
20260904234538 72 323 3.0 7.0 0.00 0.00 0.00 37 972.9
20260904233545 73 310 7.0 12.0 0.00 0.00 0.00 36 972.9
20260904233538 72 293 5.0 11.0 0.00 0.00 0.00 36 972.9
20260904232539 73 289 7.0 14.0 0.00 0.00 0.00 36 972.9
20260904232049 73 289 2.0 13.0 0.00 0.00 0.00 37 972.9
20260904232040 73 286 11.0 14.0 0.00 0.00 0.00 35 973.0
20260904231048 74 257 6.0 11.0 0.00 0.00 0.00 36 972.8
20260904231040 73 266 5.0 13.0 0.00 0.00 0.00 35 972.9
20260904230039 74 233 5.0 11.0 0.00 0.00 0.00 35 972.8
20260904225538 74 288 4.0 12.0 0.00 0.00 0.00 36 972.8
20260904225040 74 282 6.0 12.0 0.00 0.00 0.00 36 972.5
20260904224546 74 257 8.0 13.0 0.00 0.00 0.00 36 972.5
20260904224538 74 0 1.0 13.0 0.00 0.00 0.00 37 972.4
20260904223536 74 285 6.0 13.0 0.00 0.00 0.00 35 972.3
20260904223038 74 338 6.0 13.0 0.00 0.00 0.00 34 972.3
20260904222537 74 307 4.0 9.0 0.00 0.00 0.00 35 972.3
20260904222046 74 314 6.0 10.0 0.00 0.00 0.00 34 972.3
20260904222038 74 355 3.0 10.0 0.00 0.00 0.00 35 972.3
20260904221042 74 250 4.0 10.0 0.00 0.00 0.00 36 972.2
20260904220536 74 292 4.0 12.0 0.00 0.00 0.00 36 972.2
20260904220046 73 312 6.0 12.0 0.00 0.00 0.00 35 972.2
20260904220037 74 289 3.0 12.0 0.00 0.00 0.00 37 972.2
20260904215037 73 285 3.0 12.0 0.00 0.00 0.00 36 972.2
20260904214536 73 285 6.0 12.0 0.00 0.00 0.00 36 972.1
20260904214046 73 302 10.0 17.0 0.00 0.00 0.00 36 972.0
20260904214038 73 293 7.0 17.0 0.00 0.00 0.00 35 972.0
20260904213037 74 289 10.0 16.0 0.00 0.00 0.00 36 972.1
20260904212536 74 269 5.0 14.0 0.00 0.00 0.00 35 972.0
20260904212036 73 269 5.0 14.0 0.00 0.00 0.00 37 972.0
20260904211535 73 321 4.0 13.0 0.00 0.00 0.00 37 971.8
20260904211045 73 313 6.0 12.0 0.00 0.00 0.00 37 971.8
20260904211036 73 314 7.0 13.0 0.00 0.00 0.00 37 971.8
20260904210659 73 314 9.0 13.0 0.00 0.00 0.00 38 971.6
20260904205535 73 296 4.0 14.0 0.00 0.00 0.00 38 971.6
20260904205044 72 10 2.0 13.0 0.00 0.00 0.00 39 971.7
20260904205037 73 314 8.0 14.0 0.00 0.00 0.00 38 971.6
20260904204659 72 329 5.0 15.0 0.00 0.00 0.00 38 971.8
20260904203534 72 292 5.0 15.0 0.00 0.00 0.00 39 971.8
20260904203035 72 283 6.0 16.0 0.00 0.00 0.00 39 971.8
20260904202540 71 292 7.0 15.0 0.00 0.00 0.00 40 971.8
20260904202534 72 306 7.0 16.0 0.00 0.00 0.00 40 971.9
20260904201533 71 306 7.0 15.0 0.00 0.00 0.00 39 971.8
20260904201037 71 262 6.0 12.0 0.00 0.00 0.00 41 971.9
20260904200540 69 324 4.0 15.0 0.00 0.00 0.00 41 971.8
20260904200534 70 261 4.0 15.0 0.00 0.00 0.00 42 971.8
20260904195532 69 8 5.0 19.0 0.00 0.00 0.00 40 971.8
20260904195034 69 317 9.0 19.0 0.00 0.00 0.00 40 971.9
20260904194532 68 324 7.0 14.0 0.00 0.00 0.00 42 971.9
20260904194041 68 295 2.0 14.0 0.00 0.00 0.00 44 971.8
20260904193532 67 329 6.0 13.0 0.00 0.00 0.00 42 971.9
20260904193034 66 319 2.0 13.0 0.00 0.00 0.00 45 971.9
20260904192533 65 348 0.0 14.0 0.00 0.00 0.00 47 971.7
20260904192042 64 334 0.0 12.0 0.00 0.00 0.00 48 971.8
20260904192034 64 314 6.0 14.0 0.00 0.00 0.00 46 971.7
20260904191042 63 327 3.0 13.0 0.00 0.00 0.00 48 971.7
20260904190531 62 283 2.0 15.0 0.00 0.00 0.00 50 971.7
20260904190037 62 317 6.0 15.0 0.00 0.00 0.00 48 971.8
20260904185531 62 303 4.0 16.0 0.00 0.00 0.00 48 971.8
20260904185038 63 255 9.0 16.0 0.00 0.00 0.00 49 971.9
20260904184542 63 271 4.0 12.0 0.00 0.00 0.00 47 971.6
20260904184532 63 293 3.0 12.0 0.00 0.00 0.00 48 971.6
20260904183531 63 289 4.0 13.0 0.00 0.00 0.00 48 971.5
20260904183033 63 285 2.0 13.0 0.00 0.00 0.00 48 971.5
20260904182531 62 275 0.0 14.0 0.00 0.00 0.00 50 971.5
20260904182046 62 296 4.0 12.0 0.00 0.00 0.00 49 971.3
20260904182037 62 255 2.0 14.0 0.00 0.00 0.00 51 971.5
20260904181038 62 272 3.0 11.0 0.00 0.00 0.00 51 971.1
20260904180530 61 330 2.0 11.0 0.00 0.00 0.00 52 970.4
20260904180031 61 288 3.0 12.0 0.00 0.00 0.00 52 970.6
20260904175537 60 290 0.0 7.0 0.00 0.00 0.00 55 971.3
20260904175530 60 329 6.0 12.0 0.00 0.00 0.00 53 970.9
20260904174529 59 172 0.0 2.0 0.00 0.00 0.00 58 971.3
20260904174040 59 268 0.0 5.0 0.00 0.00 0.00 57 970.7
20260904173529 58 262 0.0 9.0 0.00 0.00 0.00 56 970.9
20260904173034 58 309 0.0 12.0 0.00 0.00 0.00 56 970.9
20260904172530 58 300 6.0 12.0 0.00 0.00 0.00 56 971.0
20260904172032 58 285 2.0 10.0 0.00 0.00 0.00 57 970.9
20260904171528 58 235 1.0 4.0 0.00 0.00 0.00 59 970.9
20260904171035 57 252 0.0 7.0 0.00 0.00 0.00 63 970.4
20260904170528 56 317 0.0 7.0 0.00 0.00 0.00 62 970.2
20260904170032 56 0 0.0 10.0 0.00 0.00 0.00 64 970.0
20260904165528 55 13 1.0 10.0 0.00 0.00 0.00 65 969.7
20260904165035 55 4 3.0 10.0 0.00 0.00 0.00 65 970.0
20260904164528 55 319 0.0 1.0 0.00 0.00 0.00 65 970.3
20260904164030 54 250 0.0 4.0 0.00 0.00 0.00 65 970.6
20260904163527 54 250 1.0 6.0 0.00 0.00 0.00 65 970.7
20260904163031 54 248 0.0 6.0 0.00 0.00 0.00 66 971.0
20260904162527 54 266 0.0 4.0 0.00 0.00 0.00 66 970.7
20260904162039 53 0 0.0 5.0 0.00 0.00 0.00 67 970.4
20260904162031 53 334 0.0 3.0 0.00 0.00 0.00 67 970.6
20260904161044 53 305 0.0 6.0 0.00 0.00 0.00 69 970.8
20260904161034 53 7 1.0 5.0 0.00 0.00 0.00 67 970.4
20260904160033 52 285 1.0 6.0 0.00 0.00 0.00 71 970.6
20260904155534 52 257 1.0 7.0 0.00 0.00 0.00 72 970.7
20260904155527 52 231 1.0 7.0 0.00 0.00 0.00 72 970.7
20260904154526 52 251 0.0 4.0 0.00 0.00 0.00 73 970.6
20260904154041 51 224 1.0 5.0 0.00 0.00 0.00 75 970.7
20260904154032 51 261 1.0 5.0 0.00 0.00 0.00 74 970.8
20260904153652 51 188 0.0 4.0 0.00 0.00 0.00 76 970.6
20260904152526 51 186 0.0 3.0 0.00 0.00 0.00 76 970.2
20260904152032 50 299 1.0 6.0 0.00 0.00 0.00 78 969.7
20260904151525 50 299 1.0 6.0 0.00 0.00 0.00 77 969.8
20260904151033 50 295 0.0 5.0 0.00 0.00 0.00 77 970.1
20260904150526 50 247 1.0 5.0 0.00 0.00 0.00 77 970.2
20260904150039 50 257 2.0 6.0 0.00 0.00 0.00 77 970.0
20260904150030 50 247 1.0 6.0 0.00 0.00 0.00 77 970.1
20260904145041 49 286 1.0 5.0 0.00 0.00 0.00 78 969.4
20260904145031 49 227 1.0 5.0 0.00 0.00 0.00 78 970.3
20260904144651 49 166 1.0 3.0 0.00 0.00 0.00 79 969.5
20260904143525 49 162 0.0 7.0 0.00 0.00 0.00 79 969.6
20260904143035 49 159 0.0 7.0 0.00 0.00 0.00 80 969.5
20260904142524 48 296 2.0 7.0 0.00 0.00 0.00 80 968.8
20260904142029 48 200 0.0 7.0 0.00 0.00 0.00 81 969.2
20260904141524 48 166 2.0 7.0 0.00 0.00 0.00 81 969.4
20260904141034 48 0 4.0 6.0 0.00 0.00 0.00 81 968.6
20260904140524 47 206 0.0 5.0 0.00 0.00 0.00 81 969.1
20260904140035 47 204 0.0 6.0 0.00 0.00 0.00 82 969.6
20260904135524 47 127 2.0 6.0 0.00 0.00 0.00 82 969.5
20260904135033 47 303 2.0 5.0 0.00 0.00 0.00 82 969.0
20260904134523 47 271 2.0 5.0 0.00 0.00 0.00 82 969.6
20260904134034 47 228 1.0 3.0 0.00 0.00 0.00 83 969.6
20260904133530 46 226 0.0 3.0 0.00 0.00 0.00 83 969.4
20260904133523 46 226 2.0 3.0 0.00 0.00 0.00 83 969.5
20260904132523 46 235 0.0 0.0 0.00 0.00 0.00 83 969.2
20260904132031 46 213 0.0 4.0 0.00 0.00 0.00 83 969.1
20260904131522 46 209 0.0 4.0 0.00 0.00 0.00 83 969.3
20260904131042 46 250 0.0 0.0 0.00 0.00 0.00 83 969.0
20260904131032 46 210 2.0 4.0 0.00 0.00 0.00 83 969.2
20260904130033 46 250 0.0 0.0 0.00 0.00 0.00 83 968.7
20260904125522 46 250 0.0 0.0 0.00 0.00 0.00 83 968.8
20260904125032 46 250 0.0 2.0 0.00 0.00 0.00 83 968.8
20260904124521 46 250 0.0 2.0 0.00 0.00 0.00 83 968.8
20260904124029 46 250 0.0 1.0 0.00 0.00 0.00 83 968.8
20260904123522 46 250 0.0 3.0 0.00 0.00 0.00 82 968.8
20260904123042 46 251 0.0 1.0 0.00 0.00 0.00 82 968.7
20260904123032 46 250 0.0 3.0 0.00 0.00 0.00 82 968.6
20260904122033 46 279 0.0 2.0 0.00 0.00 0.00 82 968.5
20260904121522 46 279 0.0 3.0 0.00 0.00 0.00 81 968.3
20260904121032 46 279 1.0 6.0 0.00 0.00 0.00 81 968.3
20260904120521 46 281 0.0 6.0 0.00 0.00 0.00 81 968.6
20260904120031 46 274 1.0 5.0 0.00 0.00 0.00 80 968.5
20260904115521 46 237 0.0 3.0 0.00 0.00 0.00 79 968.6
20260904115044 46 228 0.0 2.0 0.00 0.00 0.00 78 968.3
20260904115033 46 228 0.0 1.0 0.00 0.00 0.00 79 968.6
20260904114031 46 228 0.0 3.0 0.00 0.00 0.00 78 968.5
20260904113520 47 227 0.0 4.0 0.00 0.00 0.00 78 968.5
20260904113031 47 221 0.0 5.0 0.00 0.00 0.00 77 968.3
20260904112521 47 247 0.0 5.0 0.00 0.00 0.00 77 968.3
20260904112030 47 216 0.0 5.0 0.00 0.00 0.00 77 968.5
20260904111519 46 203 1.0 5.0 0.00 0.00 0.00 77 968.3
20260904111031 46 203 0.0 4.0 0.00 0.00 0.00 77 968.1
20260904110532 46 200 1.0 3.0 0.00 0.00 0.00 77 968.1
20260904110518 46 200 1.0 3.0 0.00 0.00 0.00 77 968.2
20260904105645 46 202 0.0 4.0 0.00 0.00 0.00 76 968.0
20260904105519 46 200 0.0 1.0 0.00 0.00 0.00 77 968.0
20260904105036 46 202 1.0 6.0 0.00 0.00 0.00 77 968.1
20260904105027 47 199 0.0 6.0 0.00 0.00 0.00 77 968.0
20260904103520 47 197 0.0 0.0 0.00 0.00 0.00 76 968.1
20260904103029 47 196 0.0 0.0 0.00 0.00 0.00 75 968.2
20260904102529 47 196 0.0 0.0 0.00 0.00 0.00 74 968.3
20260904102520 47 196 0.0 0.0 0.00 0.00 0.00 75 968.2
20260904102156 47 196 0.0 0.0 0.00 0.00 0.00 74 968.2
20260904101030 47 196 0.0 0.0 0.00 0.00 0.00 73 968.2
20260904100517 47 196 0.0 1.0 0.00 0.00 0.00 73 968.2
20260904100034 47 197 0.0 3.0 0.00 0.00 0.00 72 968.0
20260904100024 47 196 0.0 2.0 0.00 0.00 0.00 73 968.1
20260904095032 48 207 0.0 3.0 0.00 0.00 0.00 72 968.1
20260904094518 48 223 0.0 1.0 0.00 0.00 0.00 72 968.2
20260904094034 48 223 0.0 1.0 0.00 0.00 0.00 71 968.5
20260904094024 48 223 0.0 1.0 0.00 0.00 0.00 71 968.5
20260904093027 49 223 0.0 0.0 0.00 0.00 0.00 71 968.3
20260904092517 49 223 0.0 3.0 0.00 0.00 0.00 71 968.3
20260904092028 49 223 0.0 3.0 0.00 0.00 0.00 71 968.3
20260904091516 49 224 0.0 1.0 0.00 0.00 0.00 71 968.2
20260904091035 49 240 0.0 3.0 0.00 0.00 0.00 71 968.2
20260904091027 49 240 0.0 3.0 0.00 0.00 0.00 71 968.2
20260904090026 50 247 0.0 3.0 0.00 0.00 0.00 70 968.1
20260904085515 50 285 0.0 2.0 0.00 0.00 0.00 70 968.0
20260904085023 50 272 0.0 1.0 0.00 0.00 0.00 68 968.1
20260904084515 50 172 0.0 0.0 0.00 0.00 0.00 66 968.1
20260904084035 50 172 0.0 4.0 0.00 0.00 0.00 65 968.3
20260904084025 50 172 0.0 4.0 0.00 0.00 0.00 66 968.2
20260904083022 50 172 0.0 0.0 0.00 0.00 0.00 65 968.2
20260904082516 51 172 0.0 2.0 0.00 0.00 0.00 65 968.2
20260904082025 51 172 0.0 2.0 0.00 0.00 0.00 64 968.1
20260904081514 51 172 0.0 3.0 0.00 0.00 0.00 63 968.1
20260904081023 51 172 1.0 3.0 0.00 0.00 0.00 62 968.2
20260904080514 52 226 0.0 2.0 0.00 0.00 0.00 61 968.2
20260904080034 52 214 0.0 3.0 0.00 0.00 0.00 61 968.3
20260904080025 52 219 0.0 3.0 0.00 0.00 0.00 61 968.3
20260904075021 52 197 0.0 3.0 0.00 0.00 0.00 60 968.3
20260904074515 53 195 0.0 3.0 0.00 0.00 0.00 60 968.2
20260904074020 53 202 0.0 3.0 0.00 0.00 0.00 59 968.2
20260904073515 53 210 0.0 1.0 0.00 0.00 0.00 59 968.2
20260904073018 53 210 0.0 2.0 0.00 0.00 0.00 59 968.0
20260904072513 53 209 0.0 2.0 0.00 0.00 0.00 58 968.1
20260904072033 54 262 0.0 1.0 0.00 0.00 0.00 58 968.3
20260904072023 54 233 0.0 1.0 0.00 0.00 0.00 58 968.3
20260904071023 55 264 0.0 0.0 0.00 0.00 0.00 58 968.3
20260904070520 55 264 0.0 0.0 0.00 0.00 0.00 56 968.1
20260904070513 55 264 0.0 0.0 0.00 0.00 0.00 56 968.1
20260904065513 55 264 0.0 0.0 0.00 0.00 0.00 55 968.2
20260904065014 55 264 0.0 0.0 0.00 0.00 0.00 55 968.2
20260904064513 56 264 0.0 1.0 0.00 0.00 0.00 55 968.2
20260904064015 56 264 0.0 4.0 0.00 0.00 0.00 54 968.0
20260904063513 56 264 0.0 4.0 0.00 0.00 0.00 54 967.9
20260904063014 56 206 0.0 1.0 0.00 0.00 0.00 56 968.1
20260904062520 56 206 0.0 1.0 0.00 0.00 0.00 53 968.2
20260904062513 56 206 0.0 1.0 0.00 0.00 0.00 53 968.1
20260904061512 56 206 0.0 1.0 0.00 0.00 0.00 53 968.3